| time (UTC) | temp C | wind direction | speed KPH | gust KPH | rain 1hr cm | rain 24hr cm | rain mn cm | humidity % | barometer mb |
| 20260507051012 | 11 | 276 | 0.0 | 0.0 | 0.00 | 0.03 | 0.03 | 90 | 1013.3 |
| 20260507050508 | 11 | 5 | 1.6 | 3.2 | 0.00 | 0.03 | 0.03 | 91 | 1013.3 |
| 20260507050005 | 11 | 303 | 0.0 | 1.6 | 0.00 | 0.03 | 0.03 | 91 | 1013.4 |
| 20260507045501 | 11 | 284 | 0.0 | 1.6 | 0.00 | 0.03 | 0.03 | 91 | 1013.3 |
| 20260507044959 | 11 | 269 | 0.0 | 4.8 | 0.00 | 0.03 | 0.03 | 90 | 1013.4 |
| 20260507044455 | 11 | 284 | 0.0 | 3.2 | 0.00 | 0.03 | 0.03 | 90 | 1013.5 |
| 20260507043951 | 11 | 305 | 1.6 | 3.2 | 0.00 | 0.03 | 0.03 | 89 | 1013.3 |
| 20260507043448 | 11 | 300 | 1.6 | 1.6 | 0.18 | 0.03 | 0.03 | 88 | 1013.3 |
| 20260507042944 | 11 | 277 | 0.0 | 1.6 | 0.18 | 0.03 | 0.03 | 87 | 1013.5 |
| 20260507042441 | 12 | 294 | 0.0 | 3.2 | 0.00 | 0.00 | 0.00 | 87 | 1013.4 |
| 20260507041937 | 12 | 10 | 3.2 | 8.0 | 0.00 | 0.00 | 0.00 | 86 | 1013.2 |
| 20260507041434 | 12 | 8 | 6.4 | 9.7 | 0.00 | 0.00 | 0.00 | 86 | 1013.1 |
| 20260507040931 | 12 | 328 | 1.6 | 4.8 | 0.00 | 0.00 | 0.00 | 86 | 1013.4 |
| 20260507040426 | 12 | 269 | 0.0 | 11.3 | 0.00 | 0.00 | 0.00 | 86 | 1013.3 |
| 20260507035922 | 12 | 288 | 1.6 | 4.8 | 0.00 | 1.04 | 1.04 | 85 | 1013.1 |
| 20260507035419 | 12 | 295 | 1.6 | 8.0 | 0.00 | 1.04 | 1.04 | 85 | 1012.7 |
| 20260507034916 | 12 | 17 | 3.2 | 4.8 | 0.00 | 1.04 | 1.04 | 85 | 1013.2 |
| 20260507034413 | 12 | 283 | 0.0 | 3.2 | 0.00 | 1.04 | 1.04 | 85 | 1013.1 |
| 20260507033911 | 12 | 69 | 1.6 | 3.2 | 0.00 | 1.04 | 1.04 | 86 | 1013.3 |
| 20260507033409 | 12 | 253 | 0.0 | 3.2 | 0.00 | 1.04 | 1.04 | 85 | 1013.0 |
| 20260507032905 | 12 | 29 | 1.6 | 3.2 | 0.00 | 1.04 | 1.04 | 86 | 1012.5 |
| 20260507032402 | 13 | 17 | 3.2 | 8.0 | 0.00 | 1.04 | 1.04 | 86 | 1012.5 |
| 20260507031858 | 13 | 277 | 0.0 | 1.6 | 0.00 | 1.04 | 1.04 | 85 | 1012.8 |
| 20260507031355 | 13 | 323 | 1.6 | 8.0 | 0.00 | 1.04 | 1.04 | 85 | 1013.0 |
| 20260507030852 | 13 | 301 | 4.8 | 9.7 | 0.00 | 1.04 | 1.04 | 85 | 1013.2 |
| 20260507030349 | 13 | 81 | 3.2 | 4.8 | 0.00 | 1.04 | 1.04 | 85 | 1013.0 |
| 20260507025845 | 13 | 247 | 1.6 | 8.0 | 0.00 | 1.04 | 1.04 | 85 | 1012.8 |
| 20260507025343 | 13 | 302 | 3.2 | 4.8 | 0.00 | 1.04 | 1.04 | 85 | 1012.7 |
| 20260507024841 | 13 | 286 | 1.6 | 3.2 | 0.00 | 1.04 | 1.04 | 85 | 1012.9 |
| 20260507024338 | 13 | 19 | 3.2 | 4.8 | 0.00 | 1.04 | 1.04 | 86 | 1012.9 |
| 20260507023834 | 13 | 292 | 1.6 | 1.6 | 0.00 | 1.04 | 1.04 | 86 | 1012.9 |
| 20260507023330 | 13 | 252 | 0.0 | 4.8 | 0.00 | 1.04 | 1.04 | 86 | 1012.6 |
| 20260507022828 | 13 | 67 | 3.2 | 11.3 | 0.00 | 1.04 | 1.04 | 86 | 1012.6 |
| 20260507022324 | 13 | 352 | 4.8 | 8.0 | 0.00 | 1.04 | 1.04 | 87 | 1012.6 |
| 20260507021820 | 14 | 325 | 1.6 | 3.2 | 0.00 | 1.04 | 1.04 | 87 | 1012.4 |
| 20260507021316 | 14 | 50 | 4.8 | 4.8 | 0.00 | 1.04 | 1.04 | 87 | 1012.4 |
| 20260507020814 | 15 | 277 | 1.6 | 3.2 | 0.00 | 1.04 | 1.04 | 86 | 1012.3 |
| 20260507020310 | 15 | 286 | 3.2 | 3.2 | 0.00 | 1.04 | 1.04 | 84 | 1012.5 |
| 20260507015808 | 15 | 286 | 1.6 | 4.8 | 0.00 | 1.04 | 1.04 | 83 | 1012.7 |
| 20260507015306 | 15 | 275 | 4.8 | 4.8 | 0.00 | 1.04 | 1.04 | 83 | 1012.2 |
| 20260507014802 | 15 | 297 | 4.8 | 9.7 | 0.00 | 1.04 | 1.04 | 83 | 1012.5 |
| 20260507014258 | 15 | 311 | 8.0 | 11.3 | 0.00 | 1.04 | 1.04 | 84 | 1012.6 |
| 20260507013755 | 15 | 330 | 6.4 | 14.5 | 0.00 | 1.04 | 1.04 | 84 | 1012.8 |
| 20260507013252 | 15 | 324 | 8.0 | 11.3 | 0.00 | 1.04 | 1.04 | 84 | 1012.6 |
| 20260507012749 | 15 | 289 | 6.4 | 14.5 | 0.00 | 1.04 | 1.04 | 84 | 1012.5 |
| 20260507012245 | 15 | 290 | 8.0 | 12.9 | 0.00 | 1.04 | 1.04 | 84 | 1012.5 |
| 20260507011743 | 15 | 313 | 4.8 | 11.3 | 0.00 | 1.04 | 1.04 | 85 | 1012.3 |
| 20260507011239 | 15 | 290 | 4.8 | 11.3 | 0.00 | 1.04 | 1.04 | 85 | 1012.1 |
| 20260507010738 | 15 | 295 | 6.4 | 11.3 | 0.00 | 1.04 | 1.04 | 85 | 1012.3 |
| 20260507010235 | 15 | 286 | 8.0 | 12.9 | 0.00 | 1.04 | 1.04 | 84 | 1012.4 |
| 20260507005733 | 15 | 288 | 8.0 | 9.7 | 0.00 | 1.04 | 1.04 | 85 | 1012.2 |
| 20260507005229 | 15 | 298 | 6.4 | 11.3 | 0.00 | 1.04 | 1.04 | 84 | 1011.9 |
| 20260507004725 | 15 | 326 | 6.4 | 9.7 | 0.00 | 1.04 | 1.04 | 85 | 1011.9 |
| 20260507004223 | 15 | 319 | 4.8 | 8.0 | 0.00 | 1.04 | 1.04 | 85 | 1011.9 |
| 20260507003719 | 15 | 324 | 4.8 | 8.0 | 0.00 | 1.04 | 1.04 | 85 | 1011.6 |
| 20260507003214 | 15 | 281 | 8.0 | 11.3 | 0.00 | 1.04 | 1.04 | 84 | 1011.6 |
| 20260507002711 | 15 | 286 | 6.4 | 14.5 | 0.00 | 1.04 | 1.04 | 85 | 1011.6 |
| 20260507002207 | 15 | 303 | 11.3 | 14.5 | 0.00 | 1.04 | 1.04 | 85 | 1011.5 |
| 20260507001704 | 16 | 303 | 9.7 | 11.3 | 0.00 | 1.04 | 1.04 | 86 | 1011.7 |
| 20260507001201 | 16 | 288 | 9.7 | 12.9 | 0.00 | 1.04 | 1.04 | 86 | 1011.5 |
| 20260507000657 | 16 | 321 | 9.7 | 11.3 | 0.00 | 1.04 | 1.04 | 87 | 1011.1 |
| 20260507000153 | 16 | 282 | 9.7 | 16.1 | 0.00 | 1.04 | 1.04 | 87 | 1011.0 |
| 20260506235650 | 16 | 309 | 9.7 | 11.3 | 0.00 | 1.04 | 1.04 | 87 | 1011.0 |
| 20260506235145 | 16 | 330 | 4.8 | 8.0 | 0.00 | 1.04 | 1.04 | 87 | 1010.7 |
| 20260506234643 | 16 | 321 | 8.0 | 9.7 | 0.00 | 1.04 | 1.04 | 88 | 1010.7 |
| 20260506234140 | 16 | 292 | 4.8 | 12.9 | 0.00 | 1.04 | 1.04 | 88 | 1010.5 |
| 20260506233637 | 16 | 306 | 1.6 | 11.3 | 0.00 | 1.04 | 1.04 | 89 | 1010.5 |
| 20260506233134 | 16 | 293 | 11.3 | 12.9 | 0.00 | 1.04 | 1.04 | 89 | 1010.5 |
| 20260506232630 | 16 | 291 | 8.0 | 11.3 | 0.00 | 1.04 | 1.04 | 91 | 1010.5 |
| 20260506232125 | 17 | 313 | 11.3 | 14.5 | 0.13 | 1.04 | 1.04 | 92 | 1010.4 |
| 20260506231623 | 17 | 284 | 8.0 | 12.9 | 0.13 | 1.04 | 1.04 | 92 | 1010.6 |
| 20260506231121 | 17 | 8 | 8.0 | 11.3 | 0.00 | 1.02 | 1.02 | 94 | 1010.0 |
| 20260506230618 | 17 | 252 | 1.6 | 3.2 | 0.00 | 1.02 | 1.02 | 93 | 1009.9 |
| 20260506230115 | 17 | 272 | 3.2 | 4.8 | 0.00 | 1.02 | 1.02 | 94 | 1010.2 |
| 20260506225611 | 17 | 267 | 3.2 | 4.8 | 0.00 | 1.02 | 1.02 | 94 | 1010.0 |
| 20260506225108 | 18 | 322 | 4.8 | 8.0 | 0.00 | 1.02 | 1.02 | 93 | 1010.2 |
| 20260506224605 | 18 | 301 | 6.4 | 14.5 | 0.00 | 1.02 | 1.02 | 92 | 1010.2 |
| 20260506224101 | 18 | 261 | 6.4 | 11.3 | 0.00 | 1.02 | 1.02 | 91 | 1009.7 |
| 20260506223557 | 18 | 236 | 8.0 | 9.7 | 0.00 | 1.02 | 1.02 | 91 | 1009.7 |
| 20260506223053 | 18 | 253 | 4.8 | 9.7 | 0.00 | 1.02 | 1.02 | 91 | 1009.9 |
| 20260506222550 | 18 | 231 | 8.0 | 12.9 | 0.00 | 1.02 | 1.02 | 90 | 1009.8 |
| 20260506222047 | 18 | 269 | 8.0 | 9.7 | 0.00 | 1.02 | 1.02 | 89 | 1009.7 |
| 20260506221544 | 18 | 239 | 8.0 | 14.5 | 0.00 | 1.02 | 1.02 | 89 | 1009.8 |
| 20260506221042 | 18 | 228 | 4.8 | 11.3 | 0.00 | 1.02 | 1.02 | 88 | 1009.6 |
| 20260506220538 | 18 | 225 | 6.4 | 11.3 | 0.00 | 1.02 | 1.02 | 88 | 1009.8 |
| 20260506220034 | 18 | 246 | 4.8 | 12.9 | 0.00 | 1.02 | 1.02 | 88 | 1009.7 |
| 20260506215531 | 18 | 236 | 9.7 | 16.1 | 0.00 | 1.02 | 1.02 | 87 | 1009.6 |
| 20260506215026 | 18 | 218 | 14.5 | 17.7 | 0.00 | 1.02 | 1.02 | 87 | 1009.5 |
| 20260506214524 | 18 | 277 | 9.7 | 16.1 | 0.00 | 1.02 | 1.02 | 87 | 1009.6 |
| 20260506214021 | 18 | 222 | 6.4 | 9.7 | 0.00 | 1.02 | 1.02 | 87 | 1009.4 |
| 20260506213519 | 18 | 242 | 9.7 | 16.1 | 0.00 | 1.02 | 1.02 | 87 | 1009.2 |
| 20260506213016 | 19 | 231 | 8.0 | 9.7 | 0.00 | 1.02 | 1.02 | 87 | 1009.2 |
| 20260506212512 | 18 | 227 | 8.0 | 11.3 | 0.00 | 1.02 | 1.02 | 87 | 1009.2 |
| 20260506212007 | 18 | 254 | 6.4 | 12.9 | 0.00 | 1.02 | 1.02 | 87 | 1009.1 |
| 20260506211502 | 18 | 259 | 3.2 | 11.3 | 0.00 | 1.02 | 1.02 | 88 | 1009.1 |
| 20260506210955 | 18 | 253 | 11.3 | 16.1 | 0.00 | 1.02 | 1.02 | 87 | 1009.2 |
| 20260506210451 | 19 | 266 | 9.7 | 16.1 | 0.00 | 1.02 | 1.02 | 87 | 1009.1 |
| 20260506205948 | 19 | 248 | 14.5 | 16.1 | 0.00 | 1.02 | 1.02 | 87 | 1009.1 |
| 20260506205444 | 19 | 301 | 6.4 | 12.9 | 0.00 | 1.02 | 1.02 | 87 | 1009.0 |
| 20260506204940 | 18 | 284 | 6.4 | 14.5 | 0.00 | 1.02 | 1.02 | 87 | 1009.1 |
| 20260506204438 | 18 | 234 | 9.7 | 14.5 | 0.00 | 1.02 | 1.02 | 87 | 1008.9 |
| 20260506203936 | 19 | 263 | 9.7 | 14.5 | 0.00 | 1.02 | 1.02 | 86 | 1009.0 |
| 20260506203433 | 19 | 230 | 8.0 | 14.5 | 0.00 | 1.02 | 1.02 | 86 | 1009.1 |
| 20260506202929 | 19 | 235 | 16.1 | 20.9 | 0.00 | 1.02 | 1.02 | 86 | 1009.2 |
| 20260506202427 | 19 | 245 | 9.7 | 12.9 | 0.00 | 1.02 | 1.02 | 87 | 1008.9 |
| 20260506201923 | 19 | 245 | 11.3 | 12.9 | 0.00 | 1.02 | 1.02 | 86 | 1009.2 |
| 20260506201421 | 19 | 252 | 1.6 | 9.7 | 0.00 | 1.02 | 1.02 | 87 | 1009.0 |
| 20260506200917 | 18 | 228 | 8.0 | 11.3 | 0.00 | 1.02 | 1.02 | 88 | 1009.2 |
| 20260506200413 | 18 | 217 | 11.3 | 14.5 | 0.00 | 1.02 | 1.02 | 87 | 1008.9 |
| 20260506195910 | 18 | 252 | 8.0 | 12.9 | 0.00 | 1.02 | 1.02 | 88 | 1009.1 |
| 20260506195407 | 18 | 242 | 4.8 | 12.9 | 0.00 | 1.02 | 1.02 | 88 | 1009.2 |
| 20260506194904 | 18 | 225 | 6.4 | 11.3 | 0.00 | 1.02 | 1.02 | 88 | 1009.3 |
| 20260506194401 | 18 | 248 | 11.3 | 17.7 | 0.00 | 1.02 | 1.02 | 88 | 1009.4 |
| 20260506193858 | 18 | 268 | 4.8 | 16.1 | 0.00 | 1.02 | 1.02 | 88 | 1009.2 |
| 20260506193354 | 18 | 245 | 9.7 | 24.1 | 0.00 | 1.02 | 1.02 | 88 | 1009.3 |
| 20260506192851 | 18 | 249 | 11.3 | 16.1 | 0.00 | 1.02 | 1.02 | 88 | 1009.2 |
| 20260506192348 | 18 | 256 | 6.4 | 11.3 | 0.00 | 1.02 | 1.02 | 89 | 1009.1 |
| 20260506191845 | 18 | 233 | 12.9 | 16.1 | 0.00 | 1.02 | 1.02 | 88 | 1009.2 |
| 20260506191341 | 18 | 242 | 12.9 | 14.5 | 0.00 | 1.02 | 1.02 | 89 | 1009.2 |
| 20260506190838 | 18 | 237 | 4.8 | 9.7 | 0.00 | 1.02 | 1.02 | 90 | 1009.3 |
| 20260506190334 | 17 | 257 | 11.3 | 17.7 | 0.00 | 1.02 | 1.02 | 90 | 1009.6 |
| 20260506185831 | 17 | 249 | 4.8 | 16.1 | 0.00 | 1.02 | 1.02 | 90 | 1009.4 |
| 20260506185328 | 17 | 247 | 4.8 | 11.3 | 0.00 | 1.02 | 1.02 | 91 | 1009.5 |
| 20260506184825 | 17 | 269 | 6.4 | 11.3 | 0.00 | 1.02 | 1.02 | 92 | 1009.7 |
| 20260506184323 | 17 | 231 | 8.0 | 9.7 | 0.00 | 1.02 | 1.02 | 92 | 1009.8 |
| 20260506183820 | 17 | 281 | 9.7 | 12.9 | 0.00 | 1.02 | 1.02 | 92 | 1009.5 |
| 20260506183315 | 17 | 288 | 9.7 | 12.9 | 0.00 | 1.02 | 1.02 | 92 | 1009.8 |
| 20260506182813 | 17 | 252 | 4.8 | 12.9 | 0.00 | 1.02 | 1.02 | 93 | 1009.7 |
| 20260506182310 | 17 | 238 | 6.4 | 9.7 | 0.00 | 1.02 | 1.02 | 93 | 1009.6 |
| 20260506181807 | 17 | 251 | 12.9 | 14.5 | 0.00 | 1.02 | 1.02 | 92 | 1009.7 |
| 20260506181305 | 17 | 236 | 11.3 | 16.1 | 0.00 | 1.02 | 1.02 | 93 | 1009.7 |
| 20260506180802 | 17 | 245 | 16.1 | 17.7 | 0.00 | 1.02 | 1.02 | 93 | 1009.9 |
| 20260506180257 | 17 | 239 | 14.5 | 17.7 | 0.00 | 1.02 | 1.02 | 94 | 1009.7 |
| 20260506175754 | 16 | 228 | 9.7 | 22.5 | 0.00 | 1.02 | 1.02 | 94 | 1009.9 |
| 20260506175251 | 16 | 216 | 11.3 | 12.9 | 0.00 | 1.02 | 1.02 | 94 | 1009.7 |
| 20260506174748 | 16 | 223 | 6.4 | 14.5 | 0.00 | 1.02 | 1.02 | 95 | 1009.8 |
| 20260506174245 | 16 | 251 | 9.7 | 17.7 | 0.00 | 1.02 | 1.02 | 94 | 1009.9 |
| 20260506173743 | 16 | 215 | 16.1 | 20.9 | 0.00 | 1.02 | 1.02 | 94 | 1009.8 |
| 20260506173240 | 16 | 254 | 14.5 | 22.5 | 0.00 | 1.02 | 1.02 | 94 | 1009.7 |
| 20260506172737 | 16 | 221 | 8.0 | 20.9 | 0.00 | 1.02 | 1.02 | 94 | 1009.9 |
| 20260506172233 | 16 | 250 | 6.4 | 12.9 | 0.00 | 1.02 | 1.02 | 95 | 1009.8 |
| 20260506171731 | 16 | 221 | 4.8 | 12.9 | 0.00 | 1.02 | 1.02 | 95 | 1009.9 |
| 20260506171228 | 16 | 280 | 14.5 | 16.1 | 0.00 | 1.02 | 1.02 | 96 | 1009.9 |
| 20260506170726 | 16 | 246 | 9.7 | 20.9 | 0.00 | 1.02 | 1.02 | 97 | 1010.1 |
| 20260506170222 | 16 | 259 | 8.0 | 14.5 | 0.00 | 1.02 | 1.02 | 97 | 1009.9 |
| 20260506165720 | 16 | 226 | 6.4 | 12.9 | 0.00 | 1.02 | 1.02 | 97 | 1009.8 |
| 20260506165217 | 16 | 272 | 9.7 | 14.5 | 0.00 | 1.02 | 1.02 | 98 | 1009.8 |
| 20260506164714 | 16 | 231 | 6.4 | 16.1 | 0.00 | 1.02 | 1.02 | 98 | 1010.0 |
| 20260506164211 | 16 | 239 | 8.0 | 14.5 | 0.00 | 1.02 | 1.02 | 98 | 1009.9 |
| 20260506163708 | 16 | 240 | 11.3 | 16.1 | 0.00 | 1.02 | 1.02 | 98 | 1009.7 |
| 20260506163203 | 16 | 237 | 9.7 | 11.3 | 0.00 | 1.02 | 1.02 | 99 | 1010.0 |
| 20260506162659 | 16 | 247 | 9.7 | 12.9 | 0.00 | 1.02 | 1.02 | 99 | 1009.9 |
| 20260506162157 | 15 | 242 | 8.0 | 17.7 | 0.00 | 1.02 | 1.02 | 99 | 1010.1 |
| 20260506161654 | 16 | 209 | 9.7 | 12.9 | 0.00 | 1.02 | 1.02 | 99 | 1010.0 |
| 20260506161150 | 15 | 217 | 4.8 | 11.3 | 0.00 | 1.02 | 1.02 | 99 | 1010.3 |
| 20260506160648 | 15 | 241 | 1.6 | 8.0 | 0.00 | 1.02 | 1.02 | 99 | 1010.2 |
| 20260506160145 | 15 | 237 | 11.3 | 14.5 | 0.00 | 1.02 | 1.02 | 99 | 1010.0 |
| 20260506155643 | 15 | 249 | 4.8 | 11.3 | 0.00 | 1.02 | 1.02 | 99 | 1010.2 |
| 20260506155140 | 15 | 233 | 8.0 | 17.7 | 0.00 | 1.02 | 1.02 | 99 | 1009.7 |
| 20260506153242 | 15 | 213 | 8.0 | 11.3 | 0.18 | 1.02 | 1.02 | 99 | 1009.9 |
| 20260506152739 | 15 | 238 | 9.7 | 11.3 | 0.30 | 1.02 | 1.02 | 99 | 1009.8 |
| 20260506152237 | 15 | 228 | 3.2 | 12.9 | 0.30 | 0.99 | 0.99 | 99 | 1010.0 |
| 20260506151735 | 15 | 239 | 1.6 | 9.7 | 0.48 | 0.97 | 0.97 | 99 | 1009.9 |
| 20260506151232 | 15 | 244 | 8.0 | 17.7 | 0.61 | 0.94 | 0.94 | 99 | 1010.0 |
| 20260506150728 | 15 | 246 | 3.2 | 8.0 | 0.48 | 0.89 | 0.89 | 99 | 1010.3 |
| 20260506150225 | 15 | 238 | 4.8 | 8.0 | 0.48 | 0.84 | 0.84 | 99 | 1010.3 |
| 20260506145722 | 15 | 245 | 1.6 | 9.7 | 0.30 | 0.79 | 0.79 | 99 | 1010.4 |
| 20260506145219 | 15 | 231 | 9.7 | 12.9 | 0.71 | 0.76 | 0.76 | 99 | 1010.6 |
| 20260506144716 | 15 | 204 | 6.4 | 14.5 | 0.79 | 0.71 | 0.71 | 98 | 1010.9 |
| 20260506144213 | 15 | 244 | 4.8 | 11.3 | 0.30 | 0.61 | 0.61 | 98 | 1010.9 |
| 20260506143711 | 15 | 218 | 8.0 | 16.1 | 0.30 | 0.56 | 0.56 | 97 | 1011.0 |
| 20260506143208 | 16 | 203 | 4.8 | 11.3 | 0.13 | 0.53 | 0.53 | 97 | 1011.1 |
| 20260506142707 | 16 | 248 | 14.5 | 16.1 | 0.00 | 0.51 | 0.51 | 97 | 1011.0 |
| 20260506142204 | 16 | 253 | 6.4 | 8.0 | 0.18 | 0.51 | 0.51 | 97 | 1010.7 |
| 20260506141702 | 16 | 227 | 4.8 | 11.3 | 0.13 | 0.48 | 0.48 | 97 | 1010.6 |
| 20260506141200 | 16 | 196 | 4.8 | 9.7 | 0.13 | 0.48 | 0.48 | 97 | 1010.4 |
| 20260506140657 | 16 | 240 | 8.0 | 9.7 | 0.18 | 0.46 | 0.46 | 97 | 1010.5 |
| 20260506140154 | 16 | 256 | 3.2 | 9.7 | 0.30 | 0.46 | 0.46 | 97 | 1010.4 |
| 20260506135651 | 16 | 244 | 3.2 | 3.2 | 0.61 | 0.43 | 0.43 | 97 | 1010.2 |
| 20260506135147 | 15 | 243 | 3.2 | 3.2 | 0.79 | 0.41 | 0.41 | 96 | 1010.1 |
| 20260506134644 | 16 | 232 | 1.6 | 3.2 | 0.48 | 0.33 | 0.33 | 96 | 1010.5 |
| 20260506134140 | 16 | 239 | 1.6 | 3.2 | 0.13 | 0.25 | 0.25 | 95 | 1010.4 |
| 20260506133637 | 16 | 237 | 3.2 | 3.2 | 0.18 | 0.23 | 0.23 | 95 | 1010.7 |
| 20260506133134 | 16 | 227 | 8.0 | 11.3 | 0.30 | 0.23 | 0.23 | 94 | 1010.6 |
| 20260506132632 | 16 | 249 | 3.2 | 11.3 | 0.13 | 0.20 | 0.20 | 94 | 1010.5 |
| 20260506132128 | 16 | 238 | 4.8 | 4.8 | 0.18 | 0.18 | 0.18 | 93 | 1010.4 |
| 20260506131626 | 16 | 254 | 1.6 | 1.6 | 0.00 | 0.15 | 0.15 | 93 | 1010.4 |
| 20260506131121 | 16 | 222 | 1.6 | 8.0 | 0.00 | 0.15 | 0.15 | 93 | 1010.4 |
| 20260506130619 | 16 | 230 | 6.4 | 9.7 | 0.00 | 0.15 | 0.15 | 92 | 1010.6 |
| 20260506130116 | 16 | 234 | 4.8 | 8.0 | 0.13 | 0.15 | 0.15 | 91 | 1010.5 |
| 20260506125614 | 16 | 229 | 3.2 | 8.0 | 0.13 | 0.15 | 0.15 | 92 | 1010.6 |
| 20260506125112 | 16 | 220 | 4.8 | 4.8 | 0.18 | 0.13 | 0.13 | 91 | 1010.7 |
| 20260506124609 | 16 | 223 | 3.2 | 8.0 | 0.18 | 0.13 | 0.13 | 90 | 1010.7 |
| 20260506124107 | 16 | 221 | 3.2 | 4.8 | 0.00 | 0.10 | 0.10 | 90 | 1010.7 |
| 20260506123604 | 16 | 246 | 0.0 | 3.2 | 0.13 | 0.10 | 0.10 | 89 | 1010.6 |
| 20260506123103 | 16 | 246 | 0.0 | 4.8 | 0.13 | 0.10 | 0.10 | 88 | 1010.9 |
| 20260506122559 | 16 | 254 | 6.4 | 8.0 | 0.18 | 0.08 | 0.08 | 87 | 1010.9 |
| 20260506122057 | 16 | 230 | 3.2 | 4.8 | 0.00 | 0.05 | 0.05 | 87 | 1011.1 |
| 20260506121555 | 16 | 250 | 4.8 | 4.8 | 0.00 | 0.05 | 0.05 | 86 | 1011.0 |
| 20260506121050 | 17 | 231 | 3.2 | 3.2 | 0.13 | 0.05 | 0.05 | 85 | 1011.3 |
| 20260506120549 | 17 | 266 | 3.2 | 4.8 | 0.13 | 0.05 | 0.05 | 84 | 1011.3 |
| 20260506120045 | 17 | 261 | 1.6 | 1.6 | 0.00 | 0.03 | 0.03 | 83 | 1011.1 |
| 20260506115543 | 17 | 254 | 3.2 | 4.8 | 0.00 | 0.03 | 0.03 | 81 | 1010.9 |
| 20260506115042 | 17 | 245 | 4.8 | 8.0 | 0.00 | 0.03 | 0.03 | 81 | 1010.9 |
| 20260506114539 | 17 | 255 | 0.0 | 3.2 | 0.18 | 0.03 | 0.03 | 81 | 1010.5 |
| 20260506114037 | 17 | 248 | 0.0 | 3.2 | 0.18 | 0.03 | 0.03 | 80 | 1010.5 |
| 20260506113535 | 17 | 220 | 1.6 | 3.2 | 0.00 | 0.00 | 0.00 | 79 | 1010.4 |
| 20260506113032 | 18 | 257 | 4.8 | 8.0 | 0.00 | 0.00 | 0.00 | 76 | 1010.4 |
| 20260506112528 | 18 | 235 | 3.2 | 9.7 | 0.00 | 0.00 | 0.00 | 76 | 1010.3 |
| 20260506112026 | 18 | 250 | 6.4 | 12.9 | 0.00 | 0.00 | 0.00 | 73 | 1010.6 |
| 20260506111524 | 18 | 247 | 8.0 | 9.7 | 0.00 | 0.00 | 0.00 | 72 | 1010.4 |
| 20260506111021 | 18 | 246 | 9.7 | 17.7 | 0.00 | 0.00 | 0.00 | 71 | 1010.4 |
| 20260506110518 | 18 | 247 | 3.2 | 3.2 | 0.00 | 0.00 | 0.00 | 70 | 1010.1 |
| 20260506110015 | 18 | 220 | 1.6 | 8.0 | 0.00 | 0.00 | 0.00 | 70 | 1010.2 |
| 20260506105511 | 18 | 265 | 4.8 | 4.8 | 0.00 | 0.00 | 0.00 | 70 | 1010.2 |
| 20260506105009 | 18 | 257 | 6.4 | 16.1 | 0.00 | 0.00 | 0.00 | 68 | 1010.1 |
| 20260506104507 | 18 | 253 | 0.0 | 4.8 | 0.00 | 0.00 | 0.00 | 70 | 1010.0 |
| 20260506104005 | 18 | 260 | 9.7 | 14.5 | 0.00 | 0.00 | 0.00 | 68 | 1009.9 |
| 20260506103501 | 19 | 285 | 8.0 | 11.3 | 0.00 | 0.00 | 0.00 | 67 | 1010.0 |
| 20260506102958 | 19 | 218 | 11.3 | 17.7 | 0.00 | 0.00 | 0.00 | 66 | 1009.8 |
| 20260506102456 | 19 | 244 | 8.0 | 11.3 | 0.00 | 0.00 | 0.00 | 66 | 1009.9 |
| 20260506101953 | 19 | 261 | 9.7 | 12.9 | 0.00 | 0.00 | 0.00 | 67 | 1009.6 |
| 20260506101450 | 19 | 235 | 4.8 | 12.9 | 0.00 | 0.00 | 0.00 | 66 | 1009.7 |
| 20260506100947 | 19 | 245 | 3.2 | 11.3 | 0.00 | 0.00 | 0.00 | 67 | 1009.6 |
| 20260506100446 | 19 | 220 | 3.2 | 9.7 | 0.00 | 0.00 | 0.00 | 68 | 1009.6 |
| 20260506095943 | 19 | 248 | 4.8 | 14.5 | 0.00 | 0.00 | 0.00 | 66 | 1009.5 |
| 20260506095442 | 19 | 219 | 4.8 | 8.0 | 0.00 | 0.00 | 0.00 | 66 | 1009.4 |
| 20260506094937 | 19 | 231 | 6.4 | 9.7 | 0.00 | 0.00 | 0.00 | 66 | 1009.5 |
| 20260506094436 | 19 | 238 | 6.4 | 11.3 | 0.00 | 0.00 | 0.00 | 65 | 1009.7 |
| 20260506093933 | 20 | 247 | 0.0 | 9.7 | 0.00 | 0.00 | 0.00 | 65 | 1009.5 |
| 20260506093431 | 20 | 236 | 3.2 | 14.5 | 0.00 | 0.00 | 0.00 | 63 | 1009.7 |
| 20260506092928 | 20 | 246 | 1.6 | 4.8 | 0.00 | 0.00 | 0.00 | 64 | 1009.7 |
| 20260506092426 | 20 | 224 | 8.0 | 12.9 | 0.00 | 0.00 | 0.00 | 62 | 1009.8 |
| 20260506091922 | 20 | 232 | 6.4 | 9.7 | 0.00 | 0.00 | 0.00 | 62 | 1009.8 |
| 20260506091421 | 20 | 216 | 6.4 | 14.5 | 0.00 | 0.00 | 0.00 | 62 | 1009.6 |
| 20260506090918 | 20 | 254 | 4.8 | 8.0 | 0.00 | 0.00 | 0.00 | 62 | 1009.8 |
| 20260506090415 | 20 | 230 | 6.4 | 11.3 | 0.00 | 0.00 | 0.00 | 62 | 1009.7 |
| 20260506085912 | 20 | 254 | 9.7 | 14.5 | 0.00 | 0.00 | 0.00 | 61 | 1009.9 |
| 20260506085409 | 20 | 258 | 6.4 | 12.9 | 0.00 | 0.00 | 0.00 | 61 | 1009.7 |
| 20260506084905 | 20 | 252 | 3.2 | 4.8 | 0.00 | 0.00 | 0.00 | 61 | 1009.9 |
| 20260506084402 | 20 | 214 | 4.8 | 8.0 | 0.00 | 0.00 | 0.00 | 61 | 1009.7 |
| 20260506083858 | 20 | 243 | 12.9 | 17.7 | 0.00 | 0.00 | 0.00 | 60 | 1009.6 |
| 20260506083356 | 20 | 251 | 3.2 | 17.7 | 0.00 | 0.00 | 0.00 | 60 | 1009.8 |
| 20260506082853 | 20 | 251 | 6.4 | 12.9 | 0.00 | 0.00 | 0.00 | 60 | 1009.8 |
| 20260506082349 | 20 | 232 | 4.8 | 12.9 | 0.00 | 0.00 | 0.00 | 60 | 1009.7 |
| 20260506081845 | 20 | 243 | 8.0 | 11.3 | 0.00 | 0.00 | 0.00 | 60 | 1009.9 |
| 20260506081343 | 20 | 223 | 6.4 | 11.3 | 0.00 | 0.00 | 0.00 | 59 | 1009.9 |
| 20260506080835 | 20 | 236 | 11.3 | 20.9 | 0.00 | 0.00 | 0.00 | 59 | 1009.8 |
| 20260506080331 | 20 | 241 | 14.5 | 17.7 | 0.00 | 0.00 | 0.00 | 59 | 1009.7 |
| 20260506073316 | 21 | 233 | 6.4 | 11.3 | 0.00 | 0.00 | 0.00 | 57 | 1009.8 |
| 20260506072812 | 21 | 243 | 16.1 | 24.1 | 0.00 | 0.00 | 0.00 | 56 | 1010.0 |
| 20260506072310 | 21 | 236 | 14.5 | 17.7 | 0.00 | 0.00 | 0.00 | 56 | 1009.9 |
| 20260506071808 | 21 | 207 | 3.2 | 20.9 | 0.00 | 0.00 | 0.00 | 57 | 1010.0 |
| 20260506071306 | 21 | 238 | 11.3 | 17.7 | 0.00 | 0.00 | 0.00 | 56 | 1010.0 |
| 20260506070802 | 21 | 252 | 9.7 | 12.9 | 0.00 | 0.00 | 0.00 | 56 | 1010.0 |
| 20260506070259 | 21 | 245 | 11.3 | 16.1 | 0.00 | 0.00 | 0.00 | 56 | 1009.9 |
| 20260506062235 | 21 | 245 | 9.7 | 14.5 | 0.00 | 0.00 | 0.00 | 54 | 1010.5 |
| 20260506061726 | 21 | 237 | 6.4 | 16.1 | 0.00 | 0.00 | 0.00 | 53 | 1010.6 |
| 20260506061224 | 21 | 247 | 4.8 | 12.9 | 0.00 | 0.00 | 0.00 | 53 | 1010.5 |
| 20260506060722 | 21 | 216 | 9.7 | 12.9 | 0.00 | 0.00 | 0.00 | 54 | 1010.5 |
| 20260506060219 | 21 | 217 | 8.0 | 12.9 | 0.00 | 0.00 | 0.00 | 53 | 1010.8 |